Weather History for KDAN - February, 2014

Change the Weather History Date:

Monday, February 3, 2014

  Actual Average Record
Temperature  
Mean Temperature 45 °F 39 °F  
Max Temperature 54 °F 48 °F 80 °F (1989)
Min Temperature 36 °F 30 °F 10 °F (1965)
Degree Days  
Heating Degree Days 20 26  
Month to date heating degree days 57 78  
Since 1 July heating degree days 2393 2406  
Cooling Degree Days 0 0  
Month to date cooling degree days 0 0  
Year to date cooling degree days 0 0  
Moisture  
Dew Point 42 °F    
Average Humidity 86    
Maximum Humidity 96    
Minimum Humidity 76    
Precipitation  
Precipitation 0.63 in 0.12 in 1.50 in (1996)
Month to date precipitation 0.63 0.36  
Year to date precipitation 3.92 3.78  
Snow  
Snow 0.00 in - - ()
Month to date snowfall 0.0  
Since 1 July snowfall 1.6  
Snow Depth 0.00 in    
Sea Level Pressure  
Sea Level Pressure 30.02 in    
Wind  
Wind Speed 7 mph (NE)    
Max Wind Speed 28 mph    
Max Gust Speed 33 mph    
Visibility 8 miles    
Events Rain    
T = Trace of Precipitation, MM = Missing Value Source: NWS Daily Summary

Daily Weather History Graph

Daily Weather History Graph

Search for Another Location

Airport or City:

Trip Planner

Search our weather history database for the weather conditions in past years. The results will help you decide how hot, cold, wet, or windy it might be!

Date:

Astronomy

Feb. 03, 2014 Rise Set
Actual Time 7:17 AM EST 5:45 PM EST
Civil Twilight 6:50 AM EST 6:12 PM EST
Nautical Twilight 6:19 AM EST 6:43 PM EST
Astronomical Twilight 5:49 AM EST 7:13 PM EST
Moon 9:26 AM EST (2/3) 10:24 PM EST (2/3)
Length of Visible Light 11h 22m
Length of Day
10h 28m
Waxing Crescent, 19% of the Moon is Illuminated
Feb 3
Waxing Crescent
Feb 6
First Quarter
Feb 14
Full
Feb 22
Last Quarter
Mar 1
New

Hourly Weather History & Observations

Time (EST) Temp. Windchill Dew Point Humidity Pressure Visibility Wind Dir Wind Speed Gust Speed Precip Events Conditions
12:53 AM 53.1 °F - 46.9 °F 80% 29.96 in 10.0 mi SSW 4.6 mph - N/A   Mostly Cloudy
1:53 AM 53.1 °F - 48.0 °F 83% 29.94 in 10.0 mi Calm Calm - N/A   Overcast
2:53 AM 52.0 °F - 48.9 °F 89% 29.91 in 10.0 mi Calm Calm - 0.00 in   Overcast
3:53 AM 53.1 °F - 48.9 °F 86% 29.87 in 5.0 mi SE 4.6 mph - 0.02 in Rain Light Rain
4:53 AM 52.0 °F - 48.9 °F 89% 29.87 in 10.0 mi Calm Calm - 0.00 in   Overcast
5:53 AM 52.0 °F - 50.0 °F 93% 29.87 in 6.0 mi North 3.5 mph - 0.06 in   Overcast
6:53 AM 52.0 °F - 50.0 °F 93% 29.85 in 4.0 mi East 5.8 mph - N/A   Overcast
7:24 AM 51.8 °F - 48.2 °F 88% 29.87 in 5.0 mi ENE 6.9 mph - N/A   Overcast
7:33 AM 51.8 °F - 48.2 °F 88% 29.87 in 5.0 mi ENE 8.1 mph - N/A   Overcast
7:53 AM 51.1 °F - 48.9 °F 92% 29.86 in 5.0 mi East 8.1 mph - 0.01 in Rain Light Rain
8:18 AM 48.2 °F - 44.6 °F 87% 29.97 in 1.8 mi NNW 18.4 mph 33.4 mph 0.22 in Rain Heavy Rain
8:25 AM 46.4 °F 38.7 °F 42.8 °F 87% 29.94 in 2.0 mi North 20.7 mph 25.3 mph 0.32 in Rain Heavy Rain
8:31 AM 46.4 °F 41.5 °F 42.8 °F 87% 29.94 in 3.0 mi NNE 10.4 mph 25.3 mph 0.40 in Rain Heavy Rain
8:38 AM 46.4 °F 40.7 °F 42.8 °F 87% 29.95 in 4.0 mi NNE 12.7 mph 18.4 mph 0.42 in Rain Rain
8:53 AM 46.0 °F 41.0 °F 42.1 °F 86% 29.97 in 9.0 mi North 10.4 mph - 0.45 in Rain Light Rain
9:03 AM 44.6 °F 38.1 °F 42.8 °F 93% 29.98 in 6.0 mi North 13.8 mph 18.4 mph 0.02 in Rain Light Rain
9:38 AM 44.6 °F 39.2 °F 41.0 °F 87% 29.98 in 10.0 mi NNE 10.4 mph - 0.04 in   Overcast
9:53 AM 45.0 °F 39.3 °F 41.0 °F 86% 29.96 in 10.0 mi ENE 11.5 mph - 0.05 in Rain Light Rain
10:24 AM 44.6 °F 40.7 °F 41.0 °F 87% 29.95 in 10.0 mi Variable 6.9 mph 16.1 mph 0.01 in Rain Light Rain
10:53 AM 45.0 °F 41.2 °F 41.0 °F 86% 29.98 in 10.0 mi North 6.9 mph - 0.02 in   Overcast
11:53 AM 44.1 °F 37.7 °F 39.9 °F 85% 30.02 in 10.0 mi North 12.7 mph - N/A   Overcast
12:36 PM 44.6 °F 38.1 °F 39.2 °F 81% 30.05 in 10.0 mi North 13.8 mph - N/A   Overcast
12:53 PM 44.1 °F 38.1 °F 39.9 °F 85% 30.02 in 3.0 mi NNE 11.5 mph - 0.02 in Rain Rain
1:32 PM 44.6 °F 38.4 °F 41.0 °F 87% 30.03 in 10.0 mi NNE 12.7 mph - 0.00 in   Overcast
1:53 PM 46.9 °F - 42.1 °F 83% 30.03 in 10.0 mi NNE 8.1 mph - 0.00 in   Overcast
2:53 PM 46.9 °F - 42.1 °F 83% 30.05 in 10.0 mi NE 6.9 mph - N/A   Overcast
3:27 PM 46.4 °F 41.9 °F 41.0 °F 81% 30.07 in 10.0 mi NNE 9.2 mph - N/A   Overcast
3:53 PM 46.9 °F - 41.0 °F 80% 30.07 in 10.0 mi NNE 9.2 mph - N/A   Overcast
4:53 PM 46.9 °F - 39.9 °F 77% 30.11 in 10.0 mi NE 12.7 mph - N/A   Overcast
5:53 PM 45.0 °F 41.2 °F 39.0 °F 80% 30.15 in 10.0 mi NE 6.9 mph - N/A   Overcast
6:53 PM 44.1 °F 39.5 °F 37.9 °F 79% 30.19 in 10.0 mi ENE 8.1 mph - N/A   Overcast
7:51 PM 42.8 °F 38.6 °F 35.6 °F 76% 30.22 in 10.0 mi ENE 6.9 mph - N/A   Overcast
7:53 PM 42.1 °F 37.1 °F 36.0 °F 79% 30.21 in 10.0 mi ENE 8.1 mph - N/A   Overcast
8:53 PM 41.0 °F 37.1 °F 35.1 °F 79% 30.23 in 10.0 mi East 5.8 mph - N/A   Overcast
9:53 PM 37.9 °F 32.7 °F 34.0 °F 86% 30.26 in 10.0 mi ENE 6.9 mph - N/A   Partly Cloudy
10:53 PM 37.0 °F 31.6 °F 33.1 °F 86% 30.28 in 10.0 mi NE 6.9 mph - N/A   Clear
11:53 PM 36.0 °F 30.3 °F 32.0 °F 86% 30.29 in 10.0 mi ENE 6.9 mph - N/A   Clear